| time (UTC) | temp F | wind direction | speed MPH | gust MPH | rain 1hr in | rain 24hr in | rain mn in | humidity % | barometer mb |
| 20260504080104 | 58 | 212 | 3.0 | 7.0 | 0.00 | 0.00 | 0.00 | 38 | 997.4 |
| 20260504070104 | 57 | 218 | 3.0 | 7.0 | 0.00 | 0.00 | 0.00 | 38 | 998.4 |
| 20260504060105 | 58 | 205 | 5.0 | 6.0 | 0.00 | 0.00 | 0.00 | 37 | 1000.2 |
| 20260504050604 | 58 | 199 | 3.0 | 6.0 | 0.00 | 0.00 | 0.00 | 37 | 1001.0 |
| 20260504050104 | 61 | 213 | 3.0 | 5.0 | 0.00 | 0.00 | 0.00 | 36 | 1001.2 |
| 20260504045604 | 59 | 205 | 3.0 | 5.0 | 0.00 | 0.00 | 0.00 | 36 | 1001.6 |
| 20260504045105 | 59 | 214 | 2.0 | 5.0 | 0.00 | 0.00 | 0.00 | 38 | 1001.1 |
| 20260504044604 | 59 | 196 | 3.0 | 5.0 | 0.00 | 0.00 | 0.00 | 38 | 1001.0 |
| 20260504044104 | 59 | 232 | 3.0 | 5.0 | 0.00 | 0.00 | 0.00 | 37 | 1001.4 |
| 20260504043104 | 59 | 197 | 2.0 | 3.0 | 0.00 | 0.00 | 0.00 | 36 | 1001.7 |
| 20260504042604 | 58 | 209 | 2.0 | 3.0 | 0.00 | 0.00 | 0.00 | 36 | 1001.9 |
| 20260504042104 | 57 | 214 | 1.0 | 3.0 | 0.00 | 0.00 | 0.00 | 39 | 1001.7 |
| 20260504041104 | 56 | 331 | 0.0 | 1.0 | 0.00 | 0.00 | 0.00 | 42 | 1002.1 |
| 20260504040604 | 57 | 331 | 0.0 | 1.0 | 0.00 | 0.00 | 0.00 | 30 | 1002.1 |
| 20260504035604 | 58 | 330 | 1.0 | 1.0 | 0.00 | 0.00 | 0.00 | 28 | 1002.6 |
| 20260504034604 | 56 | 336 | 0.0 | 1.0 | 0.00 | 0.00 | 0.00 | 33 | 1002.7 |
| 20260504033604 | 57 | 336 | 0.0 | 1.0 | 0.00 | 0.00 | 0.00 | 43 | 1002.8 |
| 20260504033104 | 57 | 336 | 0.0 | 0.0 | 0.00 | 0.00 | 0.00 | 43 | 1002.9 |
| 20260504032604 | 57 | 336 | 0.0 | 0.0 | 0.00 | 0.00 | 0.00 | 42 | 1003.2 |
| 20260504032104 | 55 | 336 | 0.0 | 0.0 | 0.00 | 0.00 | 0.00 | 43 | 1003.1 |
| 20260504031604 | 55 | 336 | 0.0 | 0.0 | 0.00 | 0.00 | 0.00 | 42 | 1003.1 |
| 20260504031104 | 57 | 336 | 0.0 | 0.0 | 0.00 | 0.00 | 0.00 | 41 | 1003.2 |
| 20260504030604 | 58 | 336 | 0.0 | 0.0 | 0.00 | 0.00 | 0.00 | 40 | 1003.2 |
| 20260504030104 | 58 | 336 | 0.0 | 0.0 | 0.00 | 0.00 | 0.00 | 24 | 1003.4 |
| 20260504025603 | 58 | 336 | 0.0 | 0.0 | 0.00 | 0.00 | 0.00 | 40 | 1003.5 |
| 20260504025105 | 59 | 336 | 0.0 | 0.0 | 0.00 | 0.00 | 0.00 | 39 | 1003.5 |
| 20260504024604 | 60 | 336 | 0.0 | 0.0 | 0.00 | 0.00 | 0.00 | 38 | 1003.5 |
| 20260504024104 | 59 | 336 | 0.0 | 0.0 | 0.00 | 0.00 | 0.00 | 30 | 1003.2 |
| 20260504023604 | 60 | 336 | 0.0 | 0.0 | 0.00 | 0.00 | 0.00 | 36 | 1003.3 |
| 20260504023104 | 60 | 336 | 0.0 | 0.0 | 0.00 | 0.00 | 0.00 | 37 | 1003.3 |
| 20260504022604 | 60 | 336 | 0.0 | 0.0 | 0.00 | 0.00 | 0.00 | 36 | 1003.4 |
| 20260504022104 | 61 | 336 | 0.0 | 0.0 | 0.00 | 0.00 | 0.00 | 27 | 1003.5 |
| 20260504021604 | 61 | 336 | 0.0 | 0.0 | 0.00 | 0.00 | 0.00 | 36 | 1003.5 |
| 20260504021104 | 60 | 336 | 0.0 | 0.0 | 0.00 | 0.00 | 0.00 | 35 | 1003.4 |
| 20260504020604 | 61 | 336 | 0.0 | 0.0 | 0.00 | 0.00 | 0.00 | 35 | 1003.2 |
| 20260504020104 | 61 | 336 | 0.0 | 0.0 | 0.00 | 0.00 | 0.00 | 34 | 1003.3 |
| 20260504015604 | 62 | 336 | 0.0 | 0.0 | 0.00 | 0.00 | 0.00 | 33 | 1003.3 |
| 20260504015105 | 63 | 336 | 0.0 | 0.0 | 0.00 | 0.00 | 0.00 | 31 | 1003.3 |
| 20260504014604 | 63 | 336 | 0.0 | 0.0 | 0.00 | 0.00 | 0.00 | 31 | 1003.2 |
| 20260504014104 | 64 | 336 | 0.0 | 0.0 | 0.00 | 0.00 | 0.00 | 31 | 1003.4 |
| 20260504013603 | 63 | 336 | 0.0 | 0.0 | 0.00 | 0.00 | 0.00 | 30 | 1003.1 |
| 20260504012104 | 65 | 336 | 0.0 | 0.0 | 0.00 | 0.00 | 0.00 | 27 | 1003.2 |
| 20260504011603 | 65 | 336 | 0.0 | 0.0 | 0.00 | 0.00 | 0.00 | 27 | 1003.3 |
| 20260504011104 | 66 | 336 | 0.0 | 0.0 | 0.00 | 0.00 | 0.00 | 26 | 1003.3 |
| 20260504010604 | 66 | 336 | 0.0 | 1.0 | 0.00 | 0.00 | 0.00 | 26 | 1003.3 |
| 20260504010104 | 67 | 335 | 0.0 | 5.0 | 0.00 | 0.00 | 0.00 | 24 | 1003.3 |
| 20260504005104 | 67 | 299 | 3.0 | 7.0 | 0.00 | 0.00 | 0.00 | 25 | 1003.1 |
| 20260504004104 | 69 | 241 | 2.0 | 5.0 | 0.00 | 0.00 | 0.00 | 24 | 1003.1 |
| 20260504003604 | 69 | 334 | 1.0 | 7.0 | 0.00 | 0.00 | 0.00 | 24 | 1003.1 |
| 20260504003104 | 68 | 288 | 3.0 | 10.0 | 0.00 | 0.00 | 0.00 | 24 | 1003.3 |
| 20260504002604 | 68 | 298 | 3.0 | 10.0 | 0.00 | 0.00 | 0.00 | 24 | 1003.3 |
| 20260504001604 | 69 | 344 | 1.0 | 10.0 | 0.00 | 0.00 | 0.00 | 24 | 1003.5 |
| 20260504001104 | 69 | 268 | 3.0 | 9.0 | 0.00 | 0.00 | 0.00 | 25 | 1003.2 |
| 20260504000105 | 69 | 298 | 3.0 | 9.0 | 0.00 | 0.00 | 0.00 | 25 | 1003.3 |
| 20260503235604 | 69 | 253 | 4.0 | 12.0 | 0.00 | 0.00 | 0.00 | 23 | 1003.2 |
| 20260503235104 | 69 | 272 | 4.0 | 12.0 | 0.00 | 0.00 | 0.00 | 23 | 1003.5 |
| 20260503234103 | 70 | 275 | 3.0 | 9.0 | 0.00 | 0.00 | 0.00 | 23 | 1003.4 |
| 20260503233604 | 70 | 325 | 2.0 | 14.0 | 0.00 | 0.00 | 0.00 | 22 | 1003.5 |
| 20260503233104 | 71 | 261 | 7.0 | 12.0 | 0.00 | 0.00 | 0.00 | 21 | 1003.4 |
| 20260503232603 | 71 | 335 | 5.0 | 14.0 | 0.00 | 0.00 | 0.00 | 22 | 1003.2 |
| 20260503232104 | 70 | 302 | 6.0 | 12.0 | 0.00 | 0.00 | 0.00 | 22 | 1003.2 |
| 20260503231103 | 71 | 266 | 4.0 | 14.0 | 0.00 | 0.00 | 0.00 | 22 | 1003.3 |
| 20260503230604 | 71 | 273 | 6.0 | 12.0 | 0.00 | 0.00 | 0.00 | 22 | 1003.4 |
| 20260503230104 | 71 | 325 | 2.0 | 14.0 | 0.00 | 0.00 | 0.00 | 23 | 1003.5 |
| 20260503225604 | 72 | 315 | 2.0 | 10.0 | 0.00 | 0.00 | 0.00 | 22 | 1003.6 |
| 20260503224604 | 71 | 298 | 2.0 | 12.0 | 0.00 | 0.00 | 0.00 | 23 | 1003.5 |
| 20260503224104 | 71 | 318 | 5.0 | 16.0 | 0.00 | 0.00 | 0.00 | 22 | 1003.5 |
| 20260503223604 | 72 | 23 | 5.0 | 10.0 | 0.00 | 0.00 | 0.00 | 21 | 1003.7 |
| 20260503223104 | 71 | 341 | 1.0 | 15.0 | 0.00 | 0.00 | 0.00 | 22 | 1003.6 |
| 20260503222605 | 72 | 288 | 7.0 | 12.0 | 0.00 | 0.00 | 0.00 | 21 | 1003.6 |
| 20260503222103 | 71 | 269 | 4.0 | 14.0 | 0.00 | 0.00 | 0.00 | 21 | 1003.9 |
| 20260503221104 | 71 | 244 | 3.0 | 12.0 | 0.00 | 0.00 | 0.00 | 22 | 1003.4 |
| 20260503220604 | 72 | 298 | 7.0 | 12.0 | 0.00 | 0.00 | 0.00 | 21 | 1003.6 |
| 20260503215104 | 72 | 280 | 4.0 | 18.0 | 0.00 | 0.00 | 0.00 | 22 | 1003.8 |
| 20260503214603 | 71 | 299 | 7.0 | 18.0 | 0.00 | 0.00 | 0.00 | 22 | 1004.1 |
| 20260503214104 | 71 | 320 | 5.0 | 15.0 | 0.00 | 0.00 | 0.00 | 21 | 1004.1 |
| 20260503213603 | 71 | 217 | 5.0 | 12.0 | 0.00 | 0.00 | 0.00 | 22 | 1004.2 |
| 20260503213103 | 72 | 305 | 3.0 | 12.0 | 0.00 | 0.00 | 0.00 | 22 | 1004.3 |
| 20260503212604 | 71 | 313 | 6.0 | 14.0 | 0.00 | 0.00 | 0.00 | 23 | 1004.2 |
| 20260503212103 | 71 | 327 | 5.0 | 9.0 | 0.00 | 0.00 | 0.00 | 22 | 1004.3 |
| 20260503211604 | 71 | 271 | 1.0 | 14.0 | 0.00 | 0.00 | 0.00 | 22 | 1005.2 |
| 20260503211103 | 71 | 3 | 5.0 | 14.0 | 0.00 | 0.00 | 0.00 | 23 | 1004.3 |
| 20260503210604 | 71 | 344 | 3.0 | 18.0 | 0.00 | 0.00 | 0.00 | 23 | 1004.4 |
| 20260503210104 | 69 | 312 | 7.0 | 20.0 | 0.00 | 0.00 | 0.00 | 23 | 1004.5 |
| 20260503205604 | 70 | 334 | 13.0 | 20.0 | 0.00 | 0.00 | 0.00 | 23 | 1004.6 |
| 20260503205104 | 69 | 342 | 8.0 | 21.0 | 0.00 | 0.00 | 0.00 | 23 | 1004.9 |
| 20260503203604 | 69 | 342 | 9.0 | 16.0 | 0.00 | 0.00 | 0.00 | 23 | 1004.6 |
| 20260503201604 | 70 | 189 | 4.0 | 12.0 | 0.00 | 0.00 | 0.00 | 23 | 1004.8 |
| 20260503201104 | 69 | 5 | 5.0 | 15.0 | 0.00 | 0.00 | 0.00 | 23 | 1005.0 |
| 20260503200604 | 69 | 337 | 6.0 | 20.0 | 0.00 | 0.00 | 0.00 | 22 | 1005.1 |
| 20260503200104 | 69 | 269 | 5.0 | 20.0 | 0.00 | 0.00 | 0.00 | 21 | 1005.1 |
| 20260503195604 | 70 | 276 | 7.0 | 14.0 | 0.00 | 0.00 | 0.00 | 22 | 1004.9 |
| 20260503195105 | 69 | 344 | 5.0 | 16.0 | 0.00 | 0.00 | 0.00 | 23 | 1005.1 |
| 20260503194604 | 69 | 308 | 4.0 | 16.0 | 0.00 | 0.00 | 0.00 | 23 | 1005.1 |
| 20260503194104 | 69 | 254 | 7.0 | 15.0 | 0.00 | 0.00 | 0.00 | 23 | 1005.0 |
| 20260503193604 | 69 | 319 | 5.0 | 21.0 | 0.00 | 0.00 | 0.00 | 23 | 1005.4 |
| 20260503193104 | 69 | 345 | 9.0 | 21.0 | 0.00 | 0.00 | 0.00 | 25 | 1005.3 |
| 20260503192603 | 69 | 3 | 9.0 | 14.0 | 0.00 | 0.00 | 0.00 | 24 | 1005.2 |
| 20260503192104 | 69 | 332 | 5.0 | 15.0 | 0.00 | 0.00 | 0.00 | 26 | 1005.5 |
| 20260503191603 | 68 | 6 | 3.0 | 15.0 | 0.00 | 0.00 | 0.00 | 26 | 1005.5 |
| 20260503191103 | 68 | 2 | 12.0 | 21.0 | 0.00 | 0.00 | 0.00 | 26 | 1005.4 |
| 20260503190604 | 68 | 226 | 9.0 | 16.0 | 0.00 | 0.00 | 0.00 | 26 | 1005.4 |
| 20260503190104 | 69 | 311 | 9.0 | 16.0 | 0.00 | 0.00 | 0.00 | 27 | 1005.4 |
| 20260503185604 | 69 | 296 | 7.0 | 18.0 | 0.00 | 0.00 | 0.00 | 27 | 1005.4 |
| 20260503185104 | 69 | 334 | 9.0 | 22.0 | 0.00 | 0.00 | 0.00 | 27 | 1005.5 |
| 20260503184604 | 68 | 278 | 9.0 | 22.0 | 0.00 | 0.00 | 0.00 | 27 | 1005.3 |
| 20260503184105 | 70 | 265 | 8.0 | 18.0 | 0.00 | 0.00 | 0.00 | 26 | 1005.5 |
| 20260503183604 | 69 | 319 | 5.0 | 24.0 | 0.00 | 0.00 | 0.00 | 27 | 1005.5 |
| 20260503183104 | 67 | 333 | 9.0 | 24.0 | 0.00 | 0.00 | 0.00 | 27 | 1005.6 |
| 20260503182605 | 67 | 284 | 8.0 | 20.0 | 0.00 | 0.00 | 0.00 | 30 | 1005.4 |
| 20260503182104 | 68 | 291 | 11.0 | 22.0 | 0.00 | 0.00 | 0.00 | 29 | 1005.7 |
| 20260503181104 | 68 | 354 | 10.0 | 24.0 | 0.00 | 0.00 | 0.00 | 28 | 1005.6 |
| 20260503180604 | 68 | 293 | 9.0 | 24.0 | 0.00 | 0.00 | 0.00 | 30 | 1005.8 |
| 20260503180104 | 68 | 334 | 7.0 | 14.0 | 0.00 | 0.00 | 0.00 | 33 | 1005.8 |
| 20260503175603 | 68 | 213 | 3.0 | 16.0 | 0.00 | 0.00 | 0.00 | 32 | 1005.8 |
| 20260503175104 | 67 | 34 | 7.0 | 21.0 | 0.00 | 0.00 | 0.00 | 32 | 1006.0 |
| 20260503174604 | 68 | 359 | 10.0 | 18.0 | 0.00 | 0.00 | 0.00 | 31 | 1005.8 |
| 20260503174103 | 68 | 337 | 12.0 | 21.0 | 0.00 | 0.00 | 0.00 | 30 | 1005.7 |
| 20260503173104 | 68 | 344 | 8.0 | 18.0 | 0.00 | 0.00 | 0.00 | 33 | 1006.0 |
| 20260503172104 | 68 | 345 | 6.0 | 18.0 | 0.00 | 0.00 | 0.00 | 33 | 1006.0 |
| 20260503170604 | 67 | 353 | 5.0 | 16.0 | 0.00 | 0.00 | 0.00 | 36 | 1005.8 |
| 20260503170104 | 66 | 14 | 7.0 | 18.0 | 0.00 | 0.00 | 0.00 | 35 | 1006.2 |
| 20260503160104 | 65 | 1 | 7.0 | 15.0 | 0.00 | 0.00 | 0.00 | 37 | 1005.9 |
| 20260503150605 | 64 | 349 | 5.0 | 15.0 | 0.00 | 0.00 | 0.00 | 39 | 1006.0 |
| 20260503150104 | 62 | 49 | 6.0 | 15.0 | 0.00 | 0.00 | 0.00 | 41 | 1006.0 |
| 20260503140104 | 60 | 17 | 7.0 | 14.0 | 0.00 | 0.00 | 0.00 | 44 | 1005.7 |
| 20260503131104 | 56 | 4 | 6.0 | 14.0 | 0.00 | 0.00 | 0.00 | 48 | 1005.6 |
| 20260503130604 | 56 | 331 | 5.0 | 14.0 | 0.00 | 0.00 | 0.00 | 48 | 1005.6 |
| 20260503130103 | 55 | 290 | 5.0 | 12.0 | 0.00 | 0.00 | 0.00 | 48 | 1005.5 |
| 20260503120105 | 50 | 219 | 0.0 | 1.0 | 0.00 | 0.00 | 0.00 | 56 | 1005.3 |
| 20260503110603 | 52 | 218 | 0.0 | 1.0 | 0.00 | 0.00 | 0.00 | 42 | 1004.6 |
| 20260503100104 | 56 | 212 | 2.0 | 6.0 | 0.00 | 0.00 | 0.00 | 41 | 1004.6 |
| 20260503090105 | 60 | 208 | 3.0 | 6.0 | 0.00 | 0.00 | 0.00 | 41 | 1004.7 |
| 20260503080604 | 60 | 211 | 5.0 | 9.0 | 0.00 | 0.00 | 0.00 | 45 | 1004.8 |